Other Surface Observations
Issued by NWS

Home | Current Version | Previous Version | Text Only | Print | Product List | Glossary On
Versions: 1 2 3 4 5 6 7 8 9 10 11 12 13 14 15 16 17 18 19 20 21 22 23 24 25 26 27 28 29 30 31 32 33 34 35 36 37 38 39 40 41 42 43 44 45 46 47 48 49 50
000
SXUS52 KTAE 232118
OSOTAE
OSOTAE
North Florida/South Alabama/Southwest Georgia Weather Roundup
National Weather Service Tallahassee Florida
500 PM EDT TUE AUG 23 2016

Note: "fair" indicates few or no clouds below 12,000 feet with no
significant weather and/or obstructions to visibility.

!FLZ017-115-028-034-025-232200
...North Florida...

CITY           SKY/WX    TMP DP  RH WIND       PRES   REMARKS
TALLAHASSEE    PTSUNNY   97  72  44 N10       30.09F THUNDER HX 105
APALACHICOLA   CLOUDY    90  78  68 SW8       30.11S HX 104
PERRY          CLOUDY    94  76  56 SW8       30.09S HX 107
CROSS CITY     TSTM      79  73  83 SW12      30.11R
JACKSONVILLE   PTSUNNY   88  77  69 E18       30.14F HX 100
$$

!FLZ112-006-005-002-011-232200
...Florida Panhandle...

CITY           SKY/WX    TMP DP  RH WIND       PRES   REMARKS
MARIANNA       MOSUNNY   94  73  50 E13G22    30.09F THUNDER HX 103
BONIFAY        FAIR      97  74  47 VRB3      30.10F HX 108
PANAMA CITY NW FAIR      84  77  79 W9        30.09F HX  94
TYNDALL AFB    CLOUDY    91  78  64 W14       30.10F HX 106
TYND DRONE APT FAIR      89  79  72 W8        30.10F HX 104
DE FUNIAK SPR  FAIR      93  71  49 NE6       30.12F HX 100
EGLIN AFB      MOSUNNY   83  76  77 W5        30.12F HX  91
DESTIN         MOSUNNY   91  76  61 CALM      30.12F HX 103
HURLBURT       SUNNY     88  73  62 SW6       30.11F THUNDER HX  96
CRESTVIEW      LGT RAIN  92  74  55 CALM      30.12F HX 101
PENSACOLA      PTSUNNY   89  73  59 S9        30.11F HX  97
$$

!ALZ063-066-232200
...South Alabama...

CITY           SKY/WX    TMP DP  RH WIND       PRES   REMARKS
DOTHAN         SUNNY     96  73  47 MISG      30.15F HX 105
OZARK CAIRNS   MOSUNNY   95  75  52 W6        30.12F HAZE    HX 106
FT RUCKER HELI MOSUNNY   95  73  48 VRB5      30.11F HX 104
RUCKER HELI 3  NOT AVBL
RUCKER HELI 2  FAIR      96  71  44 N6        30.11F HX 103
FLORALA APT    MOSUNNY   91  71  51 NE5       30.14F HX  97
ANDALUSIA      MOSUNNY   96  72  45 NE3       30.12F HX 104
TROY           MOSUNNY   92  72  51 CALM      30.14F HX  99
EUFALA         FAIR      98  70  40 VRB5      30.11F HX 105
MOBILE         MOSUNNY   91  73  55 CALM      30.14F HX  99
$$

!GAZ120>161-232200
...Southwest and South Central Georgia...

CITY           SKY/WX    TMP DP  RH WIND       PRES   REMARKS
THOMASVILLE    TSTM      81  77  89 CALM      30.15R
BAINBRIDGE     SUNNY     97  73  46 CALM      30.11S HX 107
MOODY AFB      TSTM      77  74  90 N7        30.19S
VALDOSTA       TSTM      81  78  91 N21G26    30.18R
MOULTRIE       PTSUNNY   88  72  58 E3        30.15S HX  94
BLAKELY        MOSUNNY   97  68  38 CALM      30.12S HX 101
ALBANY         MOSUNNY   95  71  45 SE6       30.14F HX 102
TIFTON         FAIR      77  74  88 E7        30.19R
FITZGERALD     FAIR      82  75  80 SE5       30.21S
CORDELE        FAIR      91  73  55 E10       30.17R HX  98
AMERICUS       MOCLDY    91  64  40 NE10      30.16S HX  93
HOMERVILLE     FAIR      77  75  94 CALM      30.19S
$$

!GMZ750-755-770-775-232200
...Coastal and Buoy Obs...

STATION/POSITION TIME  TEMP    WIND        PRES    VSBY  WAVE
                       AIR SEA DIR/SP/G                  HT/PER
                 (UTC) (F)     (DEG/KT/KT) (MB)    (MI)  (FT/S)
KEATON BEACH     2100   88     250/ 11/ 12 1018.6F
CEDAR KEY        2100   78      40/ 15/ 19 1021.2R
C TOWER          2100   88     250/  5/  6 1020.0F
APALACHICOLA BUO 2050   88 91  280/  2/  4 1019.9F         1
PANAMA CITY BUOY 2050   86 90  350/  2/  4 1020.4F         1
MOBILE BUOY      2100   87 89   CALM  /  2 1020.0F
ORANGE BCH AL BU 2050   86 91  160/  2/  4 1020.4F         1
$$




USA.gov is the U.S. government's official web portal to all federal, state and local government web resources and services.